Wind_Speed
42 42 42 41 41 42 42 41 43 42 40 40 42 44 46 47 48 50 50 51 51 52 53 55 56 57 59 62 63 65 68 71 73 73 73 74 76 78 80 84 88 92 96 100
44 43 44 45 45 43 44 44 44 42 42 41 44 47 48 49 50 50 51 53 53 54 56 57 58 61 63 65 67 69 70 71 72 73 73 75 78 81 85 89 94 97 102 104
47 46 47 51 48 46 45 44 42 44 40 44 45 47 49 51 52 54 55 56 57 59 61 62 63 65 66 67 68 69 69 71 71 72 75 78 82 87 91 95 99 102 102 101
51 51 55 53 48 45 44 43 44 45 45 47 48 49 51 54 55 56 58 59 61 63 65 65 66 67 67 67 67 68 68 68 71 75 78 82 87 92 96 99 100 101 95 87
53 52 54 54 48 45 45 45 46 46 46 48 49 51 53 54 57 59 59 61 62 64 65 67 67 66 65 65 64 65 67 70 74 78 83 87 91 95 96 98 95 88 76 66
53 54 55 54 50 48 47 49 46 47 49 51 51 53 55 57 58 59 60 62 63 63 63 62 62 61 60 61 63 66 69 73 78 84 88 91 92 94 93 88 79 65 60 63
56 56 57 55 51 51 51 50 49 50 53 52 54 56 58 59 59 59 59 60 60 60 59 58 58 59 60 62 65 69 73 78 83 88 90 91 91 87 79 67 59 60 61 56
52 53 55 53 53 52 52 52 54 54 54 55 57 58 58 57 58 59 58 58 57 55 55 57 58 60 62 66 69 73 77 83 86 87 88 86 80 70 59 57 58 58 48 46
46 46 47 49 49 50 51 53 56 59 61 60 56 55 55 55 55 54 52 51 51 52 54 57 59 63 66 69 73 77 82 84 84 86 82 73 62 54 54 56 54 42 48 49
49 50 50 50 54 58 61 62 61 60 58 55 53 51 51 50 49 49 48 49 50 53 56 59 63 67 70 73 78 81 82 83 82 76 65 54 51 53 54 48 41 44 48 43
64 65 65 66 67 64 57 54 53 51 50 48 46 46 46 47 46 46 47 50 54 57 59 63 66 69 74 77 79 80 82 78 69 58 48 47 51 52 41 38 43 45 47 44
59 55 54 51 49 46 47 46 43 42 43 43 44 45 44 44 45 48 51 54 58 61 63 65 69 74 77 79 80 79 72 61 51 45 45 48 49 34 35 39 43 46 47 45
42 42 40 41 39 39 38 37 38 39 41 42 43 43 45 47 50 53 56 59 62 63 65 70 74 76 77 78 73 64 54 45 42 44 48 47 33 30 33 38 43 44 45 42
31 29 29 29 31 33 34 36 37 38 39 40 42 45 49 51 54 58 60 62 62 66 71 73 74 75 74 65 56 47 40 41 43 45 45 32 28 32 37 39 38 39 42 36
25 26 27 29 31 33 34 35 37 39 41 44 46 49 52 55 57 59 60 63 67 70 71 72 71 65 56 49 40 37 39 42 42 43 31 27 31 35 38 38 37 37 34 34
29 31 32 33 33 34 35 37 39 42 44 47 49 52 54 55 57 60 63 66 67 69 69 62 55 47 42 35 33 38 40 38 41 29 26 30 34 37 37 35 34 34 31 29
32 32 33 34 36 37 38 39 41 43 46 48 50 52 54 57 59 63 65 65 65 60 54 47 40 37 30 31 35 35 35 37 25 25 28 31 34 35 33 28 28 29 28 25
30 31 32 34 35 36 38 41 43 45 46 49 51 54 56 59 62 61 59 56 51 45 40 36 33 28 30 32 32 34 29 22 25 27 30 32 31 29 26 23 24 27 23 22
28 30 32 34 36 38 39 41 43 46 49 52 53 55 57 57 54 52 48 43 37 34 36 31 27 28 29 29 32 26 23 25 25 27 29 28 26 25 23 20 21 22 19 22
29 30 31 32 36 39 41 43 46 48 50 51 51 52 49 46 44 39 33 32 31 31 28 26 26 27 27 30 25 22 24 25 26 27 26 25 26 25 22 19 18 18 18 19
26 28 31 32 35 38 41 43 44 45 45 44 44 41 38 36 32 29 29 30 29 24 23 23 24 25 26 26 21 23 24 25 26 26 25 26 25 22 19 17 16 15 16 15
25 28 30 32 33 34 36 37 37 38 38 39 37 34 31 31 30 30 26 24 23 22 23 24 25 24 26 21 21 23 25 25 25 25 25 23 20 18 16 15 16 14 13 14
20 22 23 24 26 28 31 34 37 38 37 34 30 29 30 30 28 26 23 20 20 21 24 26 26 24 21 20 22 24 24 24 24 23 21 19 17 15 14 14 14 14 14 14
15 16 20 25 28 31 34 36 37 33 30 29 28 28 27 25 20 20 19 19 22 26 28 25 18 17 19 20 22 22 22 21 20 19 17 15 14 13 12 13 13 14 15 15
18 22 26 31 33 34 34 32 29 28 28 28 26 24 21 21 20 18 19 22 27 25 15 12 13 15 16 17 18 19 18 17 16 14 12 10 10 11 12 13 13 14 15 16
23 29 35 36 35 32 30 29 30 29 27 26 23 23 22 22 21 22 24 25 14 9 9 10 11 10 12 14 14 14 14 13 11 8 7 7 8 10 11 11 12 13 14 15
33 38 41 37 33 32 31 30 30 30 29 30 29 28 27 26 25 24 15 7 6 7 7 6 8 9 11 12 13 14 13 9 7 7 7 8 9 10 10 12 13 14 15 15
Wind_Direction
232 232 233 235 237 241 245 252 255 261 269 274 274 275 277 279 281 282 284 284 285 285 287 288 289 290 290 290 289 290 291 290 290 290 290 291 292 295 296 297 298 299 299 300
235 235 237 238 240 244 249 256 264 269 270 272 275 276 279 280 282 283 283 283 284 286 287 288 289 290 290 291 292 291 290 290 291 292 294 296 296 296 298 299 300 301 301 301
235 237 241 243 246 251 255 260 266 268 270 272 273 275 277 279 280 280 282 284 286 288 289 289 290 291 292 291 291 291 292 292 294 295 296 298 299 299 300 301 302 303 304 304
238 239 245 249 251 256 261 263 267 269 269 271 274 275 275 275 278 281 284 286 287 288 289 290 290 290 291 290 290 291 293 295 296 298 300 300 301 302 304 305 305 306 305 303
242 246 251 252 254 259 262 264 266 268 270 271 273 273 274 277 280 283 284 285 286 287 289 289 289 289 289 290 293 294 297 299 300 300 301 302 304 305 305 305 306 304 305 305
243 247 250 254 256 259 262 264 267 269 270 269 272 279 281 281 282 284 286 287 288 288 288 287 287 288 291 292 295 298 299 300 302 303 305 306 306 307 307 306 306 307 308 308
244 247 251 256 258 259 260 265 265 267 269 274 278 281 282 283 284 286 286 286 286 286 286 286 287 290 293 296 298 299 302 304 306 306 306 308 309 308 307 307 308 309 311 310
246 249 252 258 261 263 265 267 269 271 275 279 282 281 281 283 283 284 284 285 285 285 286 288 290 293 296 298 300 302 305 306 307 307 309 309 308 307 307 310 311 311 310 309
250 255 259 262 263 266 269 271 274 276 278 281 281 280 280 279 280 281 282 283 285 286 288 291 294 297 299 301 302 305 306 307 308 310 309 307 306 307 309 310 311 310 313 313
251 254 260 265 271 274 277 276 276 275 276 277 276 275 275 278 280 282 283 284 285 288 291 295 298 300 302 303 305 306 307 309 309 309 307 305 308 310 312 310 309 313 317 317
256 260 262 265 268 270 269 269 269 270 272 273 273 276 279 281 282 282 284 286 289 292 295 298 300 302 304 306 307 308 310 309 308 307 306 308 311 312 309 310 312 316 321 322
263 262 261 259 259 258 260 262 265 268 272 275 278 280 281 280 282 284 287 290 293 296 299 301 303 305 307 308 309 310 308 307 306 305 308 311 312 306 309 314 316 317 320 321
247 248 248 247 245 248 255 263 268 271 274 275 275 275 279 282 285 288 291 294 297 300 301 303 306 307 307 309 309 306 306 304 305 309 312 312 306 306 311 315 316 316 320 322
238 240 242 247 254 260 263 266 269 270 271 272 274 278 282 286 289 292 295 298 300 302 304 306 307 308 309 306 304 303 303 306 310 311 311 306 305 310 315 318 318 318 320 320
247 250 256 259 262 264 267 268 268 270 272 275 279 283 286 288 292 295 298 302 303 303 304 306 308 306 304 303 301 302 306 309 309 310 306 303 308 314 317 319 320 323 324 323
256 260 263 265 266 266 268 270 272 273 276 279 282 286 288 292 295 299 301 302 302 304 307 306 303 302 301 299 303 307 307 308 310 306 304 308 312 314 317 318 322 328 329 328
261 263 265 266 268 269 271 273 275 278 281 284 287 290 294 297 298 300 301 302 304 305 302 300 300 299 297 304 306 306 307 309 306 306 309 312 314 315 317 319 324 329 332 338
261 264 267 270 272 274 276 279 282 285 287 290 292 294 295 297 299 300 302 300 299 300 298 299 301 298 303 305 306 309 310 307 308 310 312 314 316 320 320 320 327 332 338 344
263 267 271 273 276 279 282 284 286 287 289 292 294 294 295 297 299 298 296 296 297 298 299 300 299 302 305 308 310 308 308 310 311 313 314 315 318 325 326 324 329 333 339 342
263 267 272 276 280 283 284 284 286 287 289 290 292 294 296 294 295 297 299 301 302 302 299 297 301 304 306 310 306 304 308 311 312 313 314 316 318 319 323 321 325 334 341 344
266 270 272 274 276 279 281 283 284 285 288 290 293 295 297 297 299 304 306 304 304 300 295 300 303 305 307 305 299 306 308 309 312 314 316 318 319 317 314 314 319 330 341 341
272 273 275 277 279 281 283 285 289 293 295 296 298 297 296 299 303 303 303 301 301 297 299 302 302 302 307 299 301 304 307 310 312 314 316 316 318 317 315 313 316 317 328 334
272 276 281 286 290 293 293 293 295 296 296 296 294 295 296 298 299 298 300 297 298 298 299 301 302 301 300 299 302 306 308 310 311 313 314 316 319 319 317 314 312 316 323 328
276 285 290 291 292 295 297 296 295 294 291 290 290 292 292 292 292 293 296 295 300 305 305 303 294 295 299 305 308 309 311 312 313 314 315 318 322 321 316 317 318 315 320 326
298 299 299 298 301 300 295 293 291 288 287 289 290 287 286 285 289 293 296 299 303 304 299 295 299 306 312 318 321 320 318 317 317 318 320 326 332 336 335 332 328 329 331 332
303 305 305 304 303 299 297 296 293 291 290 288 286 285 284 282 284 291 297 301 298 293 296 304 313 326 335 339 341 343 341 336 333 335 343 349 349 350 347 346 346 349 347 344
304 306 308 308 303 300 298 296 293 290 288 286 284 281 280 278 280 287 287 275 281 296 311 334 336 335 334 343 351 351 355 4 16 26 28 20 11 4 1 1 1 357 354 351
Height
5667 5672 5676 5681 5684 5688 5690 5693 5694 5699 5700 5699 5699 5699 5698 5697 5697 5697 5696 5694 5693 5691 5688 5684 5681 5678 5674 5669 5665 5661 5656 5649 5642 5636 5630 5622 5614 5606 5598 5590 5580 5571 5560 5550
5656 5661 5664 5668 5672 5677 5680 5683 5685 5689 5690 5688 5687 5685 5686 5686 5686 5684 5683 5680 5678 5676 5674 5671 5667 5663 5659 5655 5649 5643 5637 5631 5624 5618 5611 5603 5595 5587 5578 5568 5558 5547 5534 5520
5645 5650 5652 5654 5663 5667 5671 5674 5676 5677 5679 5675 5676 5675 5675 5674 5672 5670 5668 5666 5665 5662 5659 5655 5651 5647 5642 5637 5631 5625 5620 5614 5607 5599 5592 5584 5574 5565 5555 5546 5533 5520 5507 5491
5632 5637 5638 5647 5654 5658 5660 5663 5664 5665 5664 5664 5664 5664 5663 5661 5660 5657 5655 5653 5651 5647 5643 5639 5635 5631 5626 5620 5615 5610 5603 5597 5589 5581 5572 5563 5553 5542 5531 5519 5507 5495 5482 5467
5621 5627 5630 5633 5642 5647 5648 5652 5651 5652 5652 5652 5652 5650 5649 5648 5646 5644 5642 5639 5636 5633 5628 5623 5619 5614 5610 5605 5599 5593 5587 5579 5570 5561 5552 5542 5531 5519 5506 5495 5483 5469 5457 5446
5610 5612 5617 5622 5630 5633 5635 5636 5640 5639 5639 5637 5637 5638 5636 5633 5631 5629 5627 5624 5620 5616 5611 5606 5602 5599 5596 5591 5585 5578 5570 5562 5552 5540 5530 5520 5509 5496 5483 5469 5459 5448 5442 5429
5596 5599 5602 5607 5613 5617 5621 5627 5625 5624 5624 5624 5623 5622 5620 5618 5616 5614 5611 5608 5604 5600 5595 5591 5588 5586 5581 5575 5568 5561 5552 5543 5532 5520 5508 5496 5486 5471 5460 5450 5442 5433 5426 5418
5583 5586 5590 5594 5598 5604 5606 5606 5607 5608 5608 5607 5606 5605 5604 5603 5600 5598 5595 5592 5588 5585 5581 5577 5574 5571 5565 5559 5552 5544 5535 5523 5512 5500 5487 5475 5463 5453 5442 5434 5428 5419 5412 5406
5576 5577 5579 5581 5584 5586 5589 5591 5591 5592 5592 5592 5591 5590 5590 5588 5586 5583 5580 5577 5574 5572 5568 5563 5559 5554 5549 5541 5533 5525 5515 5503 5492 5481 5467 5455 5446 5438 5431 5422 5413 5407 5400 5392
5562 5566 5567 5569 5570 5573 5575 5575 5576 5576 5576 5577 5576 5575 5574 5572 5570 5568 5566 5564 5561 5558 5555 5550 5544 5536 5529 5523 5515 5506 5496 5484 5472 5462 5452 5441 5433 5425 5417 5410 5403 5396 5389 5382
5549 5554 5556 5556 5557 5559 5560 5560 5561 5561 5562 5562 5561 5560 5559 5558 5556 5554 5553 5551 5548 5544 5540 5533 5527 5519 5511 5504 5495 5485 5475 5464 5453 5444 5437 5430 5423 5414 5406 5400 5393 5386 5378 5371
5536 5537 5539 5541 5542 5544 5545 5546 5547 5548 5548 5547 5547 5546 5545 5544 5543 5542 5540 5537 5532 5528 5523 5516 5509 5501 5492 5483 5473 5464 5455 5445 5438 5432 5425 5418 5412 5405 5398 5392 5384 5377 5370 5361
5520 5524 5527 5528 5530 5532 5534 5535 5536 5536 5536 5536 5535 5535 5534 5532 5530 5528 5525 5521 5517 5512 5506 5499 5491 5482 5473 5463 5454 5445 5438 5431 5426 5420 5414 5407 5401 5398 5394 5387 5377 5369 5362 5354
5510 5514 5516 5518 5520 5522 5523 5524 5525 5525 5525 5525 5525 5523 5521 5518 5516 5513 5509 5505 5500 5494 5487 5481 5473 5463 5454 5445 5438 5431 5425 5420 5415 5409 5403 5397 5394 5390 5384 5378 5372 5365 5355 5347
5500 5503 5506 5508 5510 5511 5513 5513 5514 5514 5513 5513 5511 5510 5508 5504 5501 5497 5493 5489 5483 5475 5469 5462 5454 5445 5437 5430 5425 5420 5415 5410 5405 5399 5394 5391 5387 5382 5376 5370 5364 5357 5350 5341
5491 5494 5496 5498 5499 5501 5501 5502 5502 5502 5501 5500 5498 5496 5493 5490 5486 5481 5476 5471 5464 5457 5450 5443 5437 5430 5424 5420 5416 5411 5406 5400 5396 5391 5388 5384 5380 5375 5369 5363 5357 5351 5344 5338
5482 5484 5486 5488 5489 5490 5490 5490 5490 5490 5488 5487 5485 5482 5479 5475 5470 5465 5459 5452 5445 5440 5433 5428 5424 5419 5415 5411 5407 5402 5397 5392 5388 5385 5381 5377 5373 5368 5362 5357 5352 5346 5340 5334
5472 5474 5476 5477 5478 5478 5478 5478 5477 5476 5475 5473 5470 5467 5463 5458 5453 5448 5442 5435 5430 5426 5419 5416 5413 5409 5406 5403 5398 5393 5389 5385 5382 5379 5375 5371 5366 5361 5356 5352 5347 5342 5336 5331
5463 5465 5466 5467 5467 5467 5467 5466 5465 5463 5461 5458 5455 5451 5446 5441 5436 5432 5427 5422 5418 5415 5409 5406 5404 5401 5398 5394 5390 5386 5383 5379 5376 5373 5369 5365 5360 5356 5351 5347 5344 5339 5334 5329
5455 5456 5456 5456 5456 5456 5455 5453 5451 5449 5446 5444 5440 5436 5432 5426 5422 5419 5415 5410 5409 5405 5401 5398 5396 5393 5390 5387 5383 5380 5377 5374 5371 5367 5363 5359 5355 5351 5347 5344 5340 5336 5332 5327
5446 5446 5446 5445 5445 5444 5442 5441 5438 5436 5432 5430 5427 5423 5419 5414 5411 5408 5406 5402 5399 5396 5395 5392 5390 5387 5384 5380 5378 5375 5372 5368 5365 5361 5357 5353 5349 5346 5343 5340 5337 5334 5330 5326
5437 5437 5436 5435 5434 5432 5430 5428 5426 5423 5420 5417 5414 5411 5408 5404 5402 5399 5398 5395 5392 5390 5388 5386 5384 5381 5378 5375 5372 5369 5366 5362 5358 5355 5351 5347 5344 5341 5338 5336 5334 5331 5327 5324
5427 5427 5426 5425 5424 5422 5420 5417 5414 5412 5409 5406 5403 5401 5399 5396 5394 5391 5390 5389 5387 5384 5382 5380 5377 5374 5371 5369 5366 5363 5359 5355 5351 5348 5345 5342 5340 5337 5335 5333 5331 5328 5324 5321
5422 5421 5419 5418 5416 5414 5410 5407 5404 5401 5399 5397 5395 5393 5391 5388 5388 5386 5384 5382 5380 5378 5375 5372 5370 5368 5366 5363 5360 5356 5352 5348 5345 5343 5340 5338 5336 5334 5332 5330 5327 5325 5322 5318
5417 5415 5413 5410 5407 5404 5400 5397 5394 5392 5390 5388 5387 5385 5383 5382 5381 5380 5378 5376 5374 5371 5368 5367 5365 5363 5361 5357 5354 5350 5346 5343 5341 5339 5337 5335 5334 5332 5330 5327 5325 5322 5319 5315
5410 5407 5404 5400 5396 5392 5389 5386 5384 5381 5380 5378 5377 5376 5375 5375 5374 5373 5372 5370 5368 5366 5365 5364 5362 5359 5357 5354 5350 5347 5343 5340 5338 5336 5335 5334 5332 5330 5328 5326 5323 5320 5317 5313
5401 5397 5393 5388 5384 5381 5378 5375 5372 5370 5369 5367 5367 5366 5366 5367 5367 5367 5367 5366 5365 5364 5363 5361 5359 5357 5355 5352 5349 5345 5342 5339 5337 5336 5335 5334 5332 5330 5328 5325 5322 5319 5316 5312